Hourly Weather Lugovoy

Today, 16 June, Wednesday

Time Temperature Precipitation Wind Pressure Humidity
00:00 +23°C° 0 mm 2 mps 745 mmHg 69%
01:00 +23°C° 0 mm 2 mps 746 mmHg 70%
02:00 +23°C° 0 mm 2 mps 746 mmHg 70%
03:00 +21°C° 0 mm 2 mps 746 mmHg 72%
04:00 +23°C° 0 mm 2 mps 746 mmHg 72%
05:00 +23°C° 0 mm 2 mps 746 mmHg 71%
06:00 +24°C° 0 mm 2 mps 746 mmHg 71%
07:00 +25°C° 0 mm 3 mps 746 mmHg 64%
08:00 +27°C° 0 mm 4 mps 746 mmHg 57%
09:00 +29°C° 0 mm 5 mps 746 mmHg 48%
10:00 +30°C° 0 mm 5 mps 746 mmHg 45%
11:00 +32°C° 0 mm 5 mps 745 mmHg 41%
12:00 +33°C° 0 mm 6 mps 745 mmHg 38%
13:00 +34°C° 0 mm 6 mps 745 mmHg 36%
14:00 +35°C° 0 mm 6 mps 744 mmHg 35%
15:00 +35°C° 0 mm 6 mps 744 mmHg 34%
16:00 +34°C° 0 mm 6 mps 744 mmHg 38%
17:00 +33°C° 0 mm 6 mps 744 mmHg 41%
18:00 +32°C° 0 mm 7 mps 744 mmHg 45%
19:00 +29°C° 0 mm 6 mps 744 mmHg 49%
20:00 +28°C° 0 mm 5 mps 744 mmHg 53%
21:00 +26°C° 0 mm 5 mps 744 mmHg 57%
22:00 +25°C° 0 mm 5 mps 743 mmHg 62%
23:00 +25°C° 0 mm 4 mps 743 mmHg 67%

Tomorrow, 17 June, Thursday

Time Temperature Precipitation Wind Pressure Humidity
00:00 +23°C° 0 mm 4 mps 742 mmHg 72%
01:00 +23°C° 0 mm 4 mps 742 mmHg 73%
02:00 +22°C° 0 mm 4 mps 742 mmHg 75%
03:00 +22°C° 0 mm 3 mps 742 mmHg 77%
04:00 +22°C° 0 mm 3 mps 741 mmHg 75%
05:00 +24°C° 0 mm 3 mps 741 mmHg 74%
06:00 +24°C° 0 mm 3 mps 741 mmHg 73%
07:00 +26°C° 0 mm 3 mps 742 mmHg 68%
08:00 +27°C° 0 mm 2 mps 742 mmHg 64%
09:00 +28°C° 0 mm 2 mps 742 mmHg 60%
10:00 +29°C° 0 mm 4 mps 743 mmHg 56%
11:00 +32°C° 0 mm 5 mps 743 mmHg 53%
12:00 +33°C° 0 mm 6 mps 743 mmHg 50%
13:00 +33°C° 0 mm 8 mps 743 mmHg 51%
14:00 +32°C° 0 mm 9 mps 743 mmHg 51%
15:00 +32°C° 0 mm 10 mps 744 mmHg 52%
16:00 +31°C° 0.1 mm 10 mps 744 mmHg 57%
17:00 +28°C° 0.1 mm 10 mps 745 mmHg 63%
18:00 +27°C° 0.1 mm 10 mps 746 mmHg 68%
19:00 +24°C° 0.1 mm 10 mps 747 mmHg 68%
20:00 +23°C° 0.1 mm 9 mps 748 mmHg 69%
21:00 +22°C° 0.1 mm 8 mps 749 mmHg 70%
22:00 +22°C° 0 mm 7 mps 749 mmHg 70%
23:00 +21°C° 0 mm 6 mps 749 mmHg 71%

Day after tomorrow, 18 June, Friday

Time Temperature Precipitation Wind Pressure Humidity
00:00 +21°C° 0 mm 5 mps 750 mmHg 71%
01:00 +21°C° 0 mm 6 mps 750 mmHg 72%
02:00 +20°C° 0 mm 6 mps 750 mmHg 73%
03:00 +20°C° 0 mm 6 mps 750 mmHg 74%
04:00 +20°C° 0 mm 5 mps 750 mmHg 75%
05:00 +20°C° 0 mm 5 mps 751 mmHg 76%
06:00 +20°C° 0 mm 5 mps 751 mmHg 76%
07:00 +21°C° 0 mm 5 mps 751 mmHg 70%
08:00 +22°C° 0 mm 6 mps 751 mmHg 64%
09:00 +24°C° 0 mm 6 mps 751 mmHg 58%
10:00 +26°C° 0 mm 5 mps 751 mmHg 53%
11:00 +28°C° 0 mm 5 mps 751 mmHg 47%
12:00 +29°C° 0 mm 4 mps 751 mmHg 41%
13:00 +30°C° 0 mm 4 mps 750 mmHg 40%
14:00 +32°C° 0 mm 4 mps 750 mmHg 38%
15:00 +31°C° 0 mm 3 mps 750 mmHg 37%
16:00 +31°C° 0 mm 3 mps 750 mmHg 38%
17:00 +31°C° 0 mm 3 mps 750 mmHg 40%
18:00 +31°C° 0 mm 2 mps 750 mmHg 41%
19:00 +29°C° 0 mm 2 mps 750 mmHg 47%
20:00 +27°C° 0 mm 3 mps 750 mmHg 52%
21:00 +26°C° 0 mm 3 mps 751 mmHg 57%
22:00 +25°C° 0 mm 3 mps 751 mmHg 60%
23:00 +24°C° 0 mm 3 mps 750 mmHg 63%

19 June, Saturday

Time Temperature Precipitation Wind Pressure Humidity
00:00 +24°C° 0 mm 2 mps 750 mmHg 66%
01:00 +23°C° 0 mm 2 mps 750 mmHg 69%
02:00 +23°C° 0 mm 2 mps 750 mmHg 72%
03:00 +23°C° 0 mm 2 mps 750 mmHg 75%
04:00 +22°C° 0 mm 3 mps 750 mmHg 75%
05:00 +24°C° 0 mm 3 mps 750 mmHg 76%
06:00 +25°C° 0 mm 4 mps 751 mmHg 76%
07:00 +26°C° 0 mm 5 mps 750 mmHg 68%
08:00 +28°C° 0 mm 6 mps 750 mmHg 60%
09:00 +30°C° 0 mm 7 mps 750 mmHg 52%
10:00 +32°C° 0 mm 8 mps 750 mmHg 46%
11:00 +33°C° 0 mm 9 mps 750 mmHg 39%
12:00 +34°C° 0 mm 9 mps 749 mmHg 33%
13:00 +34°C° 0 mm 10 mps 749 mmHg 33%
14:00 +34°C° 0 mm 10 mps 749 mmHg 33%
15:00 +34°C° 0 mm 10 mps 749 mmHg 34%
16:00 +32°C° 0 mm 10 mps 749 mmHg 37%
17:00 +31°C° 0 mm 10 mps 749 mmHg 40%
18:00 +29°C° 0 mm 10 mps 749 mmHg 43%
19:00 +28°C° 0 mm 9 mps 749 mmHg 44%
20:00 +27°C° 0 mm 8 mps 749 mmHg 45%
21:00 +26°C° 0 mm 7 mps 749 mmHg 46%
22:00 +24°C° 0 mm 6 mps 749 mmHg 46%
23:00 +23°C° 0 mm 6 mps 749 mmHg 45%

20 June, Sunday

Time Temperature Precipitation Wind Pressure Humidity
00:00 +22°C° 0 mm 5 mps 749 mmHg 45%
01:00 +22°C° 0 mm 5 mps 749 mmHg 46%
02:00 +22°C° 0 mm 5 mps 748 mmHg 47%
03:00 +22°C° 0 mm 5 mps 748 mmHg 48%
04:00 +22°C° 0 mm 5 mps 748 mmHg 53%
05:00 +23°C° 0 mm 5 mps 748 mmHg 57%
06:00 +24°C° 0 mm 6 mps 748 mmHg 61%
07:00 +27°C° 0 mm 6 mps 748 mmHg 54%
08:00 +29°C° 0 mm 7 mps 748 mmHg 48%
09:00 +32°C° 0 mm 7 mps 747 mmHg 41%
10:00 +34°C° 0 mm 8 mps 747 mmHg 35%
11:00 +37°C° 0 mm 9 mps 747 mmHg 30%
12:00 +39°C° 0 mm 9 mps 747 mmHg 25%
13:00 +39°C° 0 mm 10 mps 747 mmHg 25%
14:00 +39°C° 0 mm 10 mps 747 mmHg 24%
15:00 +39°C° 0 mm 11 mps 747 mmHg 24%
16:00 +37°C° 0 mm 11 mps 747 mmHg 26%
17:00 +34°C° 0 mm 10 mps 747 mmHg 27%
18:00 +33°C° 0 mm 10 mps 747 mmHg 28%
19:00 +31°C° 0 mm 9 mps 748 mmHg 30%
20:00 +29°C° 0 mm 9 mps 748 mmHg 32%
21:00 +27°C° 0 mm 8 mps 748 mmHg 33%
22:00 +27°C° 0 mm 8 mps 748 mmHg 37%
23:00 +26°C° 0 mm 8 mps 748 mmHg 42%

21 June, Monday

Time Temperature Precipitation Wind Pressure Humidity
00:00 +26°C° 0 mm 7 mps 748 mmHg 46%
01:00 +24°C° 0 mm 7 mps 747 mmHg 48%
02:00 +24°C° 0 mm 7 mps 747 mmHg 50%
03:00 +24°C° 0 mm 6 mps 747 mmHg 52%
04:00 +24°C° 0 mm 6 mps 747 mmHg 50%
05:00 +24°C° 0 mm 6 mps 747 mmHg 49%
06:00 +24°C° 0 mm 6 mps 747 mmHg 48%
07:00 +28°C° 0 mm 7 mps 747 mmHg 41%
08:00 +31°C° 0 mm 8 mps 747 mmHg 35%
09:00 +33°C° 0 mm 9 mps 747 mmHg 29%
10:00 +35°C° 0 mm 9 mps 747 mmHg 25%
11:00 +37°C° 0 mm 10 mps 746 mmHg 21%
12:00 +39°C° 0 mm 11 mps 746 mmHg 16%
13:00 +39°C° 0 mm 11 mps 746 mmHg 16%
14:00 +39°C° 0 mm 11 mps 746 mmHg 16%
15:00 +39°C° 0 mm 11 mps 746 mmHg 15%
16:00 +38°C° 0 mm 10 mps 746 mmHg 17%
17:00 +35°C° 0 mm 9 mps 746 mmHg 19%
18:00 +34°C° 0 mm 9 mps 747 mmHg 21%
19:00 +32°C° 0 mm 8 mps 747 mmHg 25%
20:00 +29°C° 0 mm 7 mps 747 mmHg 28%
21:00 +27°C° 0 mm 6 mps 748 mmHg 31%
22:00 +26°C° 0 mm 6 mps 747 mmHg 37%
23:00 +25°C° 0 mm 5 mps 747 mmHg 42%
Show more

We Need Your Consent

Meteoprog and our Service Providers may store and access personal data such as cookies, device identifiers or other similar technologies on your device and process such data to personalise content and ads, as well as provide social media features and to analyse the traffic.

  • Store and/or access information on your device

    Cookies, device identifiers or other information can be stored or accessed on your device for the purposes indicated above.

  • Personalised ads and content, ad and content measurement, audience insights, and products development

    Ads and content can be personalised based on a profile. More data can be added to better personalise ads and content. Ad and content performance can be measured. Insights about the audience who saw the ads and content can be derived. Such data can be used to develop or improve user’s experience, systems and software.

By clicking ‘I Agree’ you will allow the use of indicated cookies, device identifiers, web beacons or other similar technologies. Your settings can be changed in the browser on your device.

For certain purposes, legitimate interests may be relied on, rather than consent. You can read more about this in our Privacy and Cookie Policy.